Location: Allentsteig
(48.6833°N, 15.3167°E)
Time: 17:28:53
(UTC+00:00)

Terra - Pass Details

Date: 18 September 2020
Orbit: 701 x 703 km, 98.2° (Epoch: 30 October)

Event Time Altitude Azimuth Distance (km) Brightness Sun altitude
Exits shadow 20:18:54 30° 17° (NNE) 1,261 3.3 -29.9°
Drops below altitude 10° 20:21:34 10° 357° (N) 2,184 4.9 -30.2°
Sets 20:23:54 0° 351° (N) 3,106 5.9 -30.5°
